Retour au catalogue

STARLINK-4774

ActifCommunicationsVLEO
NORAD 56138·PAYLOAD·🇺🇸 United States

Lancé Mar 29, 2023 depuis Cape Canaveral Space Force Station

Loading…

Prochains Passages (prochaines 24 heures)

TLE

FraisSource: CelesTrak SupGP

Époque: Sep 15, 2026, 02:58 UTC

1 56138C 23046AX  26258.12409722  .00048865  00000+0  17701-2 0  2584
2 56138  42.9994 157.3533 0000923 261.0463 307.0698 15.27550313    11

Suivez STARLINK-4774 en temps réel avec AllMySat

Download on the App Store